Home > Weather > Riesa > Past weeks

Flag for Germany Weather for the Past 2 Weeks in Riesa, Saxony, Germany

Now
52 °F

Broken clouds.


Feels Like: 46 °F
Forecast: 45 / 51 °F
Wind: 20 mph from South

Location: Dresden-Klotzsche

Current Time: Feb 8, 2016 at 2:38:55 PM

Latest Report: Feb 8, 2016 at 2:20 PM


Visibility: N/A

Pressure: 29.45 "Hg

Humidity: 54%

Dew point: 36 °F

Location of RiesaLocation

Historic Weather in Riesa — Graph

°F

Riesa Temperature Yesterday

Maximum temperature yesterday: 46 °F (at 9:50 PM)
Minimum temperature yesterday: 39 °F (at 6:20 AM)
Average temperature yesterday: 42 °F

High & Low Weather Summary for the Past Weeks

 TemperatureHumidityPressure
High55 °F (Jan 27, 1:50 PM)100% (Jan 25, 1:50 AM)30.45 "Hg (Jan 25, 1:50 AM)
Low32 °F (Jan 29, 2:50 AM)46% (Jan 29, 11:50 AM)29.47 "Hg (Feb 8, 1:20 PM)
Average44 °F76%30.02 "Hg
* Reported Jan 24 1:20 PM — Feb 8 1:20 PM, Riesa, Weather by CustomWeather, © 2016

Note: Actual official high and low records may vary slightly from our data, if they occured in-between our weather recording intervals... More about our weather records

Advertising

Riesa Weather History for the Previous 24 Hours

 ConditionsComfort  
Time TempWeatherWind HumidityBarometerVisibility
1:20 PM
Mon, Feb 8
48 °FPartly sunny.20 mph58%29.47 "HgN/A
12:50 PM46 °FPartly sunny.21 mph62%29.50 "HgN/A
12:20 PM46 °FPartly sunny.20 mph62%29.50 "HgN/A
11:50 AM46 °FPartly sunny.20 mph62%29.53 "HgN/A
11:20 AM46 °FSunny.20 mph62%29.53 "Hg10 mi
10:50 AM45 °FSunny.20 mph66%29.56 "Hg10 mi
10:20 AM45 °FSunny.22 mph66%29.56 "Hg10 mi
9:50 AM45 °FSunny.25 mph66%29.59 "Hg10 mi
9:20 AM43 °FSunny.23 mph71%29.59 "Hg10 mi
8:50 AM43 °FSunny.21 mph71%29.62 "Hg10 mi
8:20 AM43 °FSunny.17 mph66%29.62 "Hg10 mi
7:50 AM43 °FSunny.17 mph66%29.62 "Hg10 mi
7:20 AM43 °FClear.20 mph66%29.65 "Hg10 mi
6:50 AM43 °FClear.15 mph66%29.65 "Hg10 mi
6:20 AM43 °FClear.17 mph66%29.65 "Hg10 mi
5:50 AM41 °FClear.13 mph70%29.68 "Hg10 mi
5:20 AM41 °FClear.12 mph70%29.68 "Hg10 mi
4:20 AM41 °FClear.10 mph70%29.71 "Hg10 mi
3:50 AM43 °FClear.12 mph66%29.71 "Hg10 mi
3:20 AM43 °FClear.15 mph71%29.71 "Hg10 mi
2:50 AM43 °FClear.15 mph71%29.74 "Hg10 mi
2:20 AM45 °FClear.14 mph66%29.74 "Hg10 mi
1:50 AM45 °FClear.14 mph66%29.74 "Hg10 mi
1:20 AM45 °FClear.14 mph66%29.74 "Hg10 mi
12:50 AM45 °FClear.14 mph71%29.74 "Hg10 mi
12:20 AM45 °FClear.14 mph71%29.74 "Hg10 mi
11:50 PM
Sun, Feb 7
45 °FPassing clouds.14 mph71%29.74 "HgN/A
11:20 PM45 °FClear.13 mph71%29.74 "Hg10 mi
10:50 PM46 °FClear.13 mph66%29.74 "Hg10 mi
10:20 PM46 °FPartly cloudy.14 mph66%29.74 "HgN/A
9:50 PM46 °FPassing clouds.15 mph66%29.74 "HgN/A
9:20 PM45 °FPartly cloudy.15 mph71%29.71 "HgN/A
8:50 PM43 °FClear.13 mph76%29.71 "Hg10 mi
8:20 PM43 °FClear.9 mph76%29.71 "Hg10 mi
7:50 PM41 °FClear.13 mph76%29.68 "Hg10 mi
7:20 PM41 °FClear.12 mph76%29.68 "Hg10 mi
6:50 PM41 °FClear.16 mph76%29.68 "Hg10 mi
6:20 PM41 °FClear.16 mph76%29.65 "Hg10 mi
5:50 PM41 °FClear.20 mph76%29.65 "Hg10 mi
5:20 PM41 °FClear.21 mph76%29.62 "Hg10 mi
4:20 PM41 °FSunny.21 mph76%29.62 "Hg10 mi
3:50 PM41 °FSunny.18 mph76%29.62 "Hg10 mi
3:20 PM41 °FSunny.21 mph76%29.65 "Hg10 mi
2:50 PM43 °FSunny.17 mph71%29.65 "Hg10 mi
2:20 PM43 °FSunny.16 mph71%29.62 "Hg10 mi
Weather by CustomWeather, © 2016

See weather overviewHow to use our weather pages